| time (UTC) | temp C | wind direction | speed KPH | gust KPH | rain 1hr cm | rain 24hr cm | rain mn cm | humidity % | barometer mb |
| 20260502123006 | 17 | 137 | 11.3 | 22.5 | 0.00 | 0.00 | 0.00 | 75 | 1015.2 |
| 20260502122006 | 17 | 127 | 16.1 | 24.1 | 0.00 | 0.00 | 0.00 | 73 | 1015.4 |
| 20260502121006 | 17 | 134 | 16.1 | 22.5 | 0.00 | 0.00 | 0.00 | 73 | 1015.7 |
| 20260502115006 | 17 | 135 | 12.9 | 24.1 | 0.00 | 0.00 | 0.00 | 72 | 1015.7 |
| 20260502114006 | 18 | 129 | 16.1 | 24.1 | 0.00 | 0.00 | 0.00 | 68 | 1015.8 |
| 20260502111006 | 19 | 130 | 14.5 | 19.3 | 0.00 | 0.00 | 0.00 | 63 | 1016.1 |
| 20260502105005 | 18 | 139 | 3.2 | 11.3 | 0.00 | 0.00 | 0.00 | 66 | 1016.5 |
| 20260502103006 | 17 | 136 | 8.0 | 14.5 | 0.00 | 0.00 | 0.00 | 73 | 1016.7 |
| 20260502102005 | 17 | 132 | 6.4 | 16.1 | 0.00 | 0.00 | 0.00 | 73 | 1016.9 |
| 20260502101006 | 16 | 129 | 8.0 | 16.1 | 0.00 | 0.00 | 0.00 | 77 | 1016.8 |
| 20260502091005 | 15 | 136 | 4.8 | 11.3 | 0.00 | 0.00 | 0.00 | 84 | 1017.3 |
| 20260502071005 | 11 | 152 | 0.0 | 4.8 | 0.00 | 0.00 | 0.00 | 94 | 1018.2 |
| 20260502070005 | 11 | 153 | 3.2 | 4.8 | 0.00 | 0.00 | 0.00 | 94 | 1018.2 |
| 20260502064006 | 11 | 163 | 1.6 | 4.8 | 0.00 | 0.00 | 0.00 | 95 | 1018.3 |
| 20260502063005 | 11 | 175 | 1.6 | 4.8 | 0.00 | 0.00 | 0.00 | 95 | 1018.4 |
| 20260502062006 | 11 | 203 | 0.0 | 3.2 | 0.00 | 0.00 | 0.00 | 95 | 1018.2 |
| 20260502061005 | 11 | 230 | 1.6 | 3.2 | 0.00 | 0.00 | 0.00 | 95 | 1018.3 |
| 20260502055005 | 11 | 302 | 0.0 | 1.6 | 0.00 | 0.00 | 0.00 | 95 | 1018.3 |
| 20260502054005 | 10 | 302 | 0.0 | 1.6 | 0.00 | 0.00 | 0.00 | 95 | 1018.3 |
| 20260502053007 | 10 | 292 | 0.0 | 1.6 | 0.00 | 0.00 | 0.00 | 95 | 1018.3 |
| 20260502052005 | 10 | 292 | 0.0 | 3.2 | 0.00 | 0.00 | 0.00 | 95 | 1018.3 |
| 20260502051005 | 10 | 292 | 1.6 | 4.8 | 0.00 | 0.00 | 0.00 | 95 | 1018.3 |
| 20260502050005 | 10 | 288 | 1.6 | 4.8 | 0.00 | 0.00 | 0.00 | 95 | 1018.4 |
| 20260502045005 | 10 | 281 | 1.6 | 4.8 | 0.00 | 0.00 | 0.00 | 95 | 1018.3 |
| 20260502044006 | 10 | 274 | 0.0 | 4.8 | 0.00 | 0.00 | 0.00 | 95 | 1018.4 |
| 20260502043005 | 10 | 273 | 0.0 | 1.6 | 0.00 | 0.00 | 0.00 | 95 | 1018.4 |
| 20260502042005 | 10 | 273 | 0.0 | 1.6 | 0.00 | 0.00 | 0.00 | 95 | 1018.4 |
| 20260502041004 | 10 | 273 | 0.0 | 1.6 | 0.00 | 0.00 | 0.00 | 94 | 1018.4 |
| 20260502040005 | 10 | 273 | 0.0 | 1.6 | 0.00 | 0.00 | 0.00 | 94 | 1018.4 |
| 20260502035007 | 10 | 273 | 0.0 | 1.6 | 0.00 | 0.00 | 0.00 | 94 | 1018.5 |
| 20260502034005 | 10 | 273 | 0.0 | 1.6 | 0.00 | 0.00 | 0.00 | 94 | 1018.7 |
| 20260502032004 | 10 | 298 | 0.0 | 1.6 | 0.00 | 0.00 | 0.00 | 94 | 1018.8 |
| 20260502031005 | 10 | 296 | 0.0 | 1.6 | 0.00 | 0.00 | 0.00 | 94 | 1018.9 |
| 20260502030005 | 10 | 297 | 0.0 | 1.6 | 0.00 | 0.00 | 0.00 | 94 | 1019.0 |
| 20260502025005 | 10 | 297 | 0.0 | 1.6 | 0.00 | 0.00 | 0.00 | 94 | 1019.0 |
| 20260502024005 | 10 | 296 | 0.0 | 3.2 | 0.00 | 0.00 | 0.00 | 94 | 1019.1 |
| 20260502023005 | 10 | 293 | 0.0 | 3.2 | 0.00 | 0.00 | 0.00 | 93 | 1019.3 |
| 20260502022005 | 10 | 292 | 1.6 | 4.8 | 0.00 | 0.00 | 0.00 | 93 | 1019.2 |
| 20260502021005 | 10 | 290 | 1.6 | 4.8 | 0.00 | 0.00 | 0.00 | 93 | 1019.3 |
| 20260502020005 | 10 | 293 | 1.6 | 4.8 | 0.00 | 0.00 | 0.00 | 93 | 1019.3 |
| 20260502014005 | 10 | 296 | 1.6 | 4.8 | 0.00 | 0.00 | 0.00 | 93 | 1019.5 |
| 20260502013005 | 10 | 309 | 1.6 | 4.8 | 0.00 | 0.00 | 0.00 | 93 | 1019.5 |
| 20260502012005 | 10 | 303 | 3.2 | 8.0 | 0.00 | 0.00 | 0.00 | 93 | 1019.5 |
| 20260502011006 | 10 | 288 | 1.6 | 8.0 | 0.00 | 0.00 | 0.00 | 93 | 1019.6 |
| 20260502005005 | 10 | 265 | 1.6 | 4.8 | 0.00 | 0.00 | 0.00 | 93 | 1019.9 |
| 20260502003005 | 10 | 272 | 1.6 | 4.8 | 0.00 | 0.00 | 0.00 | 94 | 1020.1 |
| 20260502002005 | 10 | 262 | 1.6 | 4.8 | 0.00 | 0.00 | 0.00 | 93 | 1020.0 |
| 20260502001005 | 10 | 279 | 4.8 | 12.9 | 0.00 | 0.00 | 0.00 | 93 | 1020.0 |
| 20260502000005 | 10 | 287 | 1.6 | 8.0 | 0.00 | 0.00 | 0.00 | 94 | 1020.2 |
| 20260501235005 | 10 | 293 | 1.6 | 4.8 | 0.00 | 0.00 | 0.00 | 94 | 1020.3 |
| 20260501234005 | 10 | 268 | 3.2 | 8.0 | 0.00 | 0.00 | 0.00 | 94 | 1020.4 |
| 20260501233007 | 10 | 218 | 1.6 | 12.9 | 0.00 | 0.00 | 0.00 | 94 | 1020.4 |
| 20260501230004 | 10 | 223 | 1.6 | 4.8 | 0.00 | 0.00 | 0.00 | 94 | 1020.6 |
| 20260501224005 | 10 | 298 | 3.2 | 8.0 | 0.00 | 0.00 | 0.00 | 94 | 1020.4 |
| 20260501221004 | 10 | 298 | 3.2 | 11.3 | 0.00 | 0.00 | 0.00 | 94 | 1020.5 |
| 20260501215004 | 10 | 281 | 1.6 | 4.8 | 0.00 | 0.00 | 0.00 | 93 | 1020.6 |
| 20260501214004 | 9 | 267 | 0.0 | 4.8 | 0.00 | 0.00 | 0.00 | 92 | 1020.5 |
| 20260501213004 | 10 | 267 | 0.0 | 1.6 | 0.00 | 0.00 | 0.00 | 92 | 1020.5 |
| 20260501212004 | 10 | 267 | 0.0 | 3.2 | 0.00 | 0.00 | 0.00 | 91 | 1020.5 |
| 20260501211004 | 10 | 265 | 0.0 | 3.2 | 0.00 | 0.00 | 0.00 | 92 | 1020.4 |
| 20260501210005 | 10 | 265 | 0.0 | 3.2 | 0.00 | 0.00 | 0.00 | 92 | 1020.4 |
| 20260501205004 | 10 | 254 | 1.6 | 4.8 | 0.00 | 0.00 | 0.00 | 92 | 1020.3 |
| 20260501204004 | 10 | 292 | 1.6 | 4.8 | 0.00 | 0.00 | 0.00 | 92 | 1020.3 |
| 20260501202004 | 10 | 311 | 0.0 | 11.3 | 0.00 | 0.00 | 0.00 | 90 | 1020.4 |
| 20260501201004 | 10 | 278 | 0.0 | 3.2 | 0.00 | 0.00 | 0.00 | 90 | 1020.3 |
| 20260501200004 | 10 | 278 | 0.0 | 4.8 | 0.00 | 0.00 | 0.00 | 89 | 1020.4 |
| 20260501195004 | 11 | 245 | 0.0 | 4.8 | 0.00 | 0.00 | 0.00 | 89 | 1020.2 |
| 20260501194004 | 11 | 253 | 0.0 | 8.0 | 0.00 | 0.00 | 0.00 | 89 | 1020.2 |
| 20260501193004 | 11 | 208 | 1.6 | 4.8 | 0.00 | 0.00 | 0.00 | 88 | 1020.1 |
| 20260501192004 | 11 | 248 | 1.6 | 8.0 | 0.00 | 0.00 | 0.00 | 87 | 1020.2 |
| 20260501191004 | 11 | 237 | 1.6 | 11.3 | 0.00 | 0.00 | 0.00 | 86 | 1020.2 |
| 20260501190004 | 12 | 213 | 1.6 | 9.7 | 0.00 | 0.00 | 0.00 | 85 | 1020.0 |
| 20260501185005 | 12 | 266 | 1.6 | 9.7 | 0.00 | 0.00 | 0.00 | 84 | 1020.0 |
| 20260501184004 | 12 | 281 | 1.6 | 8.0 | 0.00 | 0.00 | 0.00 | 83 | 1020.0 |
| 20260501183004 | 12 | 263 | 1.6 | 8.0 | 0.00 | 0.00 | 0.00 | 82 | 1020.1 |
| 20260501181004 | 13 | 221 | 3.2 | 9.7 | 0.00 | 0.00 | 0.00 | 80 | 1020.0 |
| 20260501180004 | 13 | 262 | 1.6 | 8.0 | 0.00 | 0.00 | 0.00 | 79 | 1020.0 |
| 20260501175004 | 14 | 322 | 3.2 | 12.9 | 0.00 | 0.00 | 0.00 | 77 | 1019.9 |
| 20260501174006 | 14 | 282 | 3.2 | 11.3 | 0.00 | 0.00 | 0.00 | 76 | 1019.7 |
| 20260501173006 | 15 | 290 | 3.2 | 11.3 | 0.00 | 0.00 | 0.00 | 74 | 1019.8 |
| 20260501172006 | 16 | 176 | 1.6 | 8.0 | 0.00 | 0.00 | 0.00 | 71 | 1019.8 |
| 20260501170006 | 17 | 259 | 3.2 | 12.9 | 0.00 | 0.00 | 0.00 | 66 | 1019.7 |
| 20260501165006 | 18 | 258 | 4.8 | 12.9 | 0.00 | 0.00 | 0.00 | 66 | 1019.7 |
| 20260501164004 | 18 | 272 | 3.2 | 9.7 | 0.00 | 0.00 | 0.00 | 67 | 1019.7 |
| 20260501163006 | 17 | 282 | 3.2 | 11.3 | 0.00 | 0.00 | 0.00 | 68 | 1019.7 |
| 20260501161006 | 17 | 284 | 3.2 | 12.9 | 0.00 | 0.00 | 0.00 | 72 | 1019.7 |
| 20260501155007 | 17 | 254 | 1.6 | 12.9 | 0.00 | 0.00 | 0.00 | 73 | 1020.1 |
| 20260501154006 | 16 | 316 | 3.2 | 9.7 | 0.00 | 0.00 | 0.00 | 77 | 1020.2 |
| 20260501153006 | 16 | 359 | 3.2 | 14.5 | 0.00 | 0.00 | 0.00 | 76 | 1020.4 |
| 20260501152006 | 16 | 186 | 3.2 | 11.3 | 0.00 | 0.00 | 0.00 | 76 | 1020.6 |
| 20260501151005 | 16 | 248 | 3.2 | 12.9 | 0.00 | 0.00 | 0.00 | 73 | 1020.6 |
| 20260501150006 | 17 | 234 | 3.2 | 12.9 | 0.00 | 0.00 | 0.00 | 72 | 1020.7 |
| 20260501144006 | 17 | 282 | 3.2 | 12.9 | 0.00 | 0.00 | 0.00 | 76 | 1020.7 |
| 20260501143006 | 16 | 292 | 3.2 | 14.5 | 0.00 | 0.00 | 0.00 | 76 | 1020.8 |
| 20260501142006 | 16 | 275 | 3.2 | 14.5 | 0.00 | 0.00 | 0.00 | 76 | 1020.8 |
| 20260501141006 | 16 | 260 | 3.2 | 16.1 | 0.00 | 0.00 | 0.00 | 75 | 1020.7 |
| 20260501135005 | 17 | 258 | 4.8 | 9.7 | 0.00 | 0.00 | 0.00 | 75 | 1020.7 |
| 20260501134006 | 17 | 209 | 3.2 | 12.9 | 0.00 | 0.00 | 0.00 | 75 | 1020.7 |
| 20260501133006 | 17 | 251 | 3.2 | 12.9 | 0.00 | 0.00 | 0.00 | 76 | 1020.7 |